,,PressureMeas_1m,,PRMeasQMR101_1,,RHStat155_1m_1,,SRMeasQMS101R_1m,,TAStat155_1m_1,,GenWind_1,,GenWind_1,
2019-10-14, 00:00:06,VALID,917.874,VALID,0.0,VALID,99.917,VALID,-0.012,VALID,20.179,VALID,115.0,VALID,0.0,
2019-10-14, 00:01:06,VALID,917.857,VALID,0.0,VALID,99.915,VALID,-0.017,VALID,20.184,VALID,110.0,VALID,0.0,
2019-10-14, 00:02:06,VALID,917.843,VALID,0.0,VALID,99.913,VALID,-0.002,VALID,20.186,VALID,141.0,VALID,0.0,
2019-10-14, 00:03:06,VALID,917.841,VALID,0.0,VALID,99.917,VALID,0.001,VALID,20.19,VALID,150.0,VALID,0.0,
2019-10-14, 00:04:06,VALID,917.836,VALID,0.0,VALID,99.917,VALID,-0.007,VALID,20.188,VALID,155.0,VALID,0.0,
2019-10-14, 00:05:06,VALID,917.825,VALID,0.0,VALID,99.915,VALID,-0.01,VALID,20.186,VALID,156.0,VALID,0.0,
2019-10-14, 00:06:06,VALID,917.798,VALID,0.0,VALID,99.914,VALID,0.019,VALID,20.172,VALID,134.0,VALID,0.013,
2019-10-14, 00:07:06,VALID,917.796,VALID,0.0,VALID,99.917,VALID,0.016,VALID,20.178,VALID,123.0,VALID,0.839,
2019-10-14, 00:08:06,VALID,917.773,VALID,0.0,VALID,99.914,VALID,0.012,VALID,20.176,VALID,116.0,VALID,0.593,
2019-10-14, 00:09:06,VALID,917.758,VALID,0.0,VALID,99.916,VALID,0.007,VALID,20.183,VALID,112.0,VALID,0.829,
2019-10-14, 00:10:06,VALID,917.758,VALID,0.0,VALID,99.916,VALID,0.024,VALID,20.179,VALID,131.0,VALID,0.557,
2019-10-14, 00:11:06,VALID,917.771,VALID,0.0,VALID,99.917,VALID,0.004,VALID,20.189,VALID,125.0,VALID,0.751,
2019-10-14, 00:12:06,VALID,917.775,VALID,0.0,VALID,99.914,VALID,0.024,VALID,20.184,VALID,139.0,VALID,0.411,
2019-10-14, 00:13:06,VALID,917.777,VALID,0.0,VALID,99.918,VALID,0.031,VALID,20.193,VALID,125.0,VALID,0.212,
2019-10-14, 00:14:06,VALID,917.801,VALID,0.0,VALID,99.913,VALID,0.032,VALID,20.176,VALID,116.0,VALID,0.552,
2019-10-14, 00:15:06,VALID,917.784,VALID,0.0,VALID,99.916,VALID,0.025,VALID,20.165,VALID,138.0,VALID,0.429,
2019-10-14, 00:16:06,VALID,917.815,VALID,0.0,VALID,99.914,VALID,0.015,VALID,20.174,VALID,127.0,VALID,0.616,
2019-10-14, 00:17:06,VALID,917.809,VALID,0.0,VALID,99.914,VALID,0.008,VALID,20.184,VALID,131.0,VALID,0.545,
2019-10-14, 00:18:06,VALID,917.813,VALID,0.0,VALID,99.914,VALID,0.009,VALID,20.173,VALID,119.0,VALID,1.028,
2019-10-14, 00:19:06,VALID,917.793,VALID,0.0,VALID,99.914,VALID,0.017,VALID,20.165,VALID,119.0,VALID,1.107,
2019-10-14, 00:20:06,VALID,917.812,VALID,0.0,VALID,99.917,VALID,0.023,VALID,20.157,VALID,120.0,VALID,1.486,
2019-10-14, 00:21:06,VALID,917.773,VALID,0.0,VALID,99.914,VALID,0.012,VALID,20.161,VALID,127.0,VALID,0.936,
2019-10-14, 00:22:06,VALID,917.776,VALID,0.0,VALID,99.914,VALID,-0.002,VALID,20.168,VALID,134.0,VALID,0.824,
2019-10-14, 00:23:06,VALID,917.807,VALID,0.0,VALID,99.913,VALID,-0.018,VALID,20.167,VALID,132.0,VALID,0.897,
2019-10-14, 00:24:06,VALID,917.795,VALID,0.0,VALID,99.916,VALID,-0.0,VALID,20.169,VALID,131.0,VALID,0.664,
2019-10-14, 00:25:06,VALID,917.795,VALID,0.0,VALID,99.914,VALID,-0.011,VALID,20.18,VALID,130.0,VALID,0.32,
2019-10-14, 00:26:06,VALID,917.801,VALID,0.0,VALID,99.913,VALID,-0.001,VALID,20.188,VALID,165.0,VALID,0.337,
2019-10-14, 00:27:06,VALID,917.811,VALID,0.0,VALID,99.913,VALID,0.005,VALID,20.171,VALID,153.0,VALID,0.308,
2019-10-14, 00:28:06,VALID,917.82,VALID,0.0,VALID,99.918,VALID,-0.001,VALID,20.168,VALID,127.0,VALID,0.261,
2019-10-14, 00:29:06,VALID,917.813,VALID,0.0,VALID,99.917,VALID,-0.011,VALID,20.14,VALID,151.0,VALID,0.768,
2019-10-14, 00:30:06,VALID,917.831,VALID,0.0,VALID,99.914,VALID,-0.001,VALID,20.141,VALID,112.0,VALID,0.675,
2019-10-14, 00:31:06,VALID,917.831,VALID,0.0,VALID,99.915,VALID,-0.007,VALID,20.154,VALID,121.0,VALID,0.798,
2019-10-14, 00:32:06,VALID,917.831,VALID,0.0,VALID,99.916,VALID,-0.007,VALID,20.157,VALID,144.0,VALID,0.731,
2019-10-14, 00:33:06,VALID,917.832,VALID,0.0,VALID,99.916,VALID,0.002,VALID,20.178,VALID,131.0,VALID,0.701,
2019-10-14, 00:34:06,VALID,917.822,VALID,0.0,VALID,99.914,VALID,-0.011,VALID,20.178,VALID,127.0,VALID,1.567,
2019-10-14, 00:35:06,VALID,917.822,VALID,0.0,VALID,99.915,VALID,-0.009,VALID,20.149,VALID,124.0,VALID,1.786,
2019-10-14, 00:36:06,VALID,917.797,VALID,0.0,VALID,99.913,VALID,0.007,VALID,20.131,VALID,131.0,VALID,1.2,
2019-10-14, 00:37:06,VALID,917.8,VALID,0.0,VALID,99.913,VALID,-0.016,VALID,20.142,VALID,127.0,VALID,0.818,
2019-10-14, 00:38:06,VALID,917.784,VALID,0.0,VALID,99.914,VALID,-0.024,VALID,20.143,VALID,126.0,VALID,0.877,
2019-10-14, 00:39:06,VALID,917.767,VALID,0.0,VALID,99.912,VALID,-0.003,VALID,20.138,VALID,121.0,VALID,1.152,
2019-10-14, 00:40:06,VALID,917.761,VALID,0.0,VALID,99.915,VALID,-0.009,VALID,20.124,VALID,126.0,VALID,1.418,
2019-10-14, 00:41:06,VALID,917.733,VALID,0.0,VALID,99.917,VALID,0.001,VALID,20.133,VALID,127.0,VALID,1.61,
2019-10-14, 00:42:06,VALID,917.719,VALID,0.0,VALID,99.915,VALID,0.008,VALID,20.144,VALID,132.0,VALID,1.789,
2019-10-14, 00:43:06,VALID,917.699,VALID,0.0,VALID,99.917,VALID,-0.012,VALID,20.155,VALID,128.0,VALID,2.456,
2019-10-14, 00:44:06,VALID,917.686,VALID,0.0,VALID,99.915,VALID,-0.002,VALID,20.174,VALID,110.0,VALID,2.598,
2019-10-14, 00:45:06,VALID,917.669,VALID,0.0,VALID,99.915,VALID,-0.006,VALID,20.178,VALID,106.0,VALID,2.25,
2019-10-14, 00:46:06,VALID,917.646,VALID,0.0,VALID,99.916,VALID,-0.006,VALID,20.189,VALID,98.0,VALID,2.092,
2019-10-14, 00:47:06,VALID,917.639,VALID,0.0,VALID,99.916,VALID,-0.008,VALID,20.195,VALID,110.0,VALID,2.15,
2019-10-14, 00:48:06,VALID,917.666,VALID,0.0,VALID,99.915,VALID,-0.004,VALID,20.201,VALID,100.0,VALID,1.989,
2019-10-14, 00:49:06,VALID,917.662,VALID,0.0,VALID,99.918,VALID,0.008,VALID,20.214,VALID,94.0,VALID,1.679,
2019-10-14, 00:50:06,VALID,917.661,VALID,0.0,VALID,99.913,VALID,0.004,VALID,20.212,VALID,130.0,VALID,1.155,
2019-10-14, 00:51:06,VALID,917.65,VALID,0.0,VALID,99.914,VALID,-0.0,VALID,20.214,VALID,141.0,VALID,1.19,
2019-10-14, 00:52:06,VALID,917.655,VALID,0.0,VALID,99.917,VALID,-0.012,VALID,20.224,VALID,143.0,VALID,0.916,
2019-10-14, 00:53:06,VALID,917.635,VALID,0.0,VALID,99.916,VALID,0.009,VALID,20.228,VALID,115.0,VALID,1.309,
2019-10-14, 00:54:06,VALID,917.623,VALID,0.0,VALID,99.919,VALID,0.011,VALID,20.213,VALID,100.0,VALID,1.11,
2019-10-14, 00:55:06,VALID,917.624,VALID,0.0,VALID,99.916,VALID,-0.011,VALID,20.21,VALID,95.0,VALID,0.868,
2019-10-14, 00:56:06,VALID,917.617,VALID,0.0,VALID,99.915,VALID,-0.015,VALID,20.203,VALID,146.0,VALID,0.111,
2019-10-14, 00:57:06,VALID,917.598,VALID,0.0,VALID,99.915,VALID,-0.009,VALID,20.21,VALID,140.0,VALID,0.0,
2019-10-14, 00:58:06,VALID,917.601,VALID,0.0,VALID,99.915,VALID,-0.006,VALID,20.197,VALID,141.0,VALID,0.0,
2019-10-14, 00:59:06,VALID,917.601,VALID,0.0,VALID,99.917,VALID,0.0,VALID,20.183,VALID,163.0,VALID,0.396,
2019-10-14, 01:00:06,VALID,917.595,VALID,0.0,VALID,99.916,VALID,-0.0,VALID,20.18,VALID,96.0,VALID,0.32,
2019-10-14, 01:01:06,VALID,917.582,VALID,0.0,VALID,99.915,VALID,-0.01,VALID,20.147,VALID,98.0,VALID,1.083,
2019-10-14, 01:02:06,VALID,917.597,VALID,0.0,VALID,99.882,VALID,-0.006,VALID,20.12,VALID,154.0,VALID,1.795,
2019-10-14, 01:03:06,VALID,917.545,VALID,0.0,VALID,99.697,VALID,0.0,VALID,20.142,VALID,121.0,VALID,1.162,
2019-10-14, 01:04:06,VALID,917.553,VALID,0.0,VALID,99.537,VALID,0.007,VALID,20.153,VALID,100.0,VALID,1.402,
2019-10-14, 01:05:06,VALID,917.529,VALID,0.0,VALID,99.462,VALID,0.006,VALID,20.139,VALID,130.0,VALID,1.386,
2019-10-14, 01:06:06,VALID,917.529,VALID,0.0,VALID,99.436,VALID,0.019,VALID,20.128,VALID,128.0,VALID,2.176,
2019-10-14, 01:07:06,VALID,917.527,VALID,0.0,VALID,99.335,VALID,0.023,VALID,20.135,VALID,126.0,VALID,2.666,
2019-10-14, 01:08:06,VALID,917.523,VALID,0.0,VALID,99.194,VALID,0.032,VALID,20.155,VALID,125.0,VALID,2.546,
2019-10-14, 01:09:06,VALID,917.528,VALID,0.0,VALID,99.028,VALID,0.016,VALID,20.183,VALID,95.0,VALID,1.439,
2019-10-14, 01:10:06,VALID,917.537,VALID,0.0,VALID,98.973,VALID,0.005,VALID,20.182,VALID,71.0,VALID,1.34,
2019-10-14, 01:11:06,VALID,917.537,VALID,0.0,VALID,99.05,VALID,0.015,VALID,20.166,VALID,92.0,VALID,0.938,
2019-10-14, 01:12:06,VALID,917.519,VALID,0.0,VALID,99.119,VALID,0.022,VALID,20.138,VALID,107.0,VALID,1.455,
2019-10-14, 01:13:06,VALID,917.5,VALID,0.0,VALID,99.189,VALID,0.016,VALID,20.132,VALID,131.0,VALID,2.165,
2019-10-14, 01:14:06,VALID,917.489,VALID,0.0,VALID,99.221,VALID,0.003,VALID,20.156,VALID,131.0,VALID,2.096,
2019-10-14, 01:15:06,VALID,917.485,VALID,0.0,VALID,99.141,VALID,0.007,VALID,20.161,VALID,120.0,VALID,1.963,
2019-10-14, 01:16:06,VALID,917.447,VALID,0.0,VALID,99.055,VALID,0.008,VALID,20.175,VALID,122.0,VALID,1.317,
2019-10-14, 01:17:06,VALID,917.447,VALID,0.0,VALID,99.001,VALID,0.014,VALID,20.199,VALID,160.0,VALID,0.588,
2019-10-14, 01:18:06,VALID,917.436,VALID,0.0,VALID,99.058,VALID,0.021,VALID,20.213,VALID,117.0,VALID,0.554,
2019-10-14, 01:19:06,VALID,917.437,VALID,0.0,VALID,99.102,VALID,0.004,VALID,20.215,VALID,128.0,VALID,0.476,
2019-10-14, 01:20:06,VALID,917.424,VALID,0.0,VALID,99.15,VALID,0.012,VALID,20.197,VALID,117.0,VALID,0.46,
2019-10-14, 01:21:06,VALID,917.443,VALID,0.0,VALID,99.192,VALID,0.008,VALID,20.191,VALID,159.0,VALID,0.356,
2019-10-14, 01:22:06,VALID,917.419,VALID,0.0,VALID,99.243,VALID,-0.0,VALID,20.194,VALID,162.0,VALID,0.277,
2019-10-14, 01:23:06,VALID,917.415,VALID,0.0,VALID,99.25,VALID,-0.005,VALID,20.193,VALID,155.0,VALID,0.041,
2019-10-14, 01:24:06,VALID,917.419,VALID,0.0,VALID,99.324,VALID,0.003,VALID,20.19,VALID,155.0,VALID,0.0,
2019-10-14, 01:25:06,VALID,917.399,VALID,0.0,VALID,99.405,VALID,0.001,VALID,20.182,VALID,155.0,VALID,0.0,
2019-10-14, 01:26:06,VALID,917.395,VALID,0.0,VALID,99.494,VALID,-0.006,VALID,20.163,VALID,72.0,VALID,0.0,
2019-10-14, 01:27:06,VALID,917.381,VALID,0.0,VALID,99.541,VALID,0.004,VALID,20.145,VALID,20.0,VALID,0.0,
2019-10-14, 01:28:06,VALID,917.382,VALID,0.0,VALID,99.609,VALID,0.001,VALID,20.122,VALID,19.0,VALID,0.0,
2019-10-14, 01:29:06,VALID,917.382,VALID,0.0,VALID,99.692,VALID,-0.009,VALID,20.117,VALID,20.0,VALID,0.0,
2019-10-14, 01:30:06,VALID,917.378,VALID,0.0,VALID,99.746,VALID,-0.004,VALID,20.104,VALID,20.0,VALID,0.0,
2019-10-14, 01:31:06,VALID,917.356,VALID,0.0,VALID,99.825,VALID,-0.007,VALID,20.097,VALID,19.0,VALID,0.0,
2019-10-14, 01:32:06,VALID,917.339,VALID,0.0,VALID,99.82,VALID,-0.011,VALID,20.053,VALID,347.0,VALID,0.0,
2019-10-14, 01:33:06,VALID,917.324,VALID,0.0,VALID,99.844,VALID,-0.002,VALID,20.004,VALID,309.0,VALID,0.0,
2019-10-14, 01:34:06,VALID,917.315,VALID,0.0,VALID,99.902,VALID,-0.014,VALID,19.99,VALID,286.0,VALID,0.0,
2019-10-14, 01:35:06,VALID,917.307,VALID,0.0,VALID,99.917,VALID,-0.011,VALID,20.016,VALID,325.0,VALID,0.0,
2019-10-14, 01:36:06,VALID,917.285,VALID,0.0,VALID,99.915,VALID,0.001,VALID,20.025,VALID,324.0,VALID,0.0,
2019-10-14, 01:37:06,VALID,917.278,VALID,0.0,VALID,99.915,VALID,-0.007,VALID,20.012,VALID,8.0,VALID,0.0,
2019-10-14, 01:38:06,VALID,917.275,VALID,0.0,VALID,99.914,VALID,-0.0,VALID,19.972,VALID,53.0,VALID,0.0,
2019-10-14, 01:39:06,VALID,917.25,VALID,0.0,VALID,99.913,VALID,-0.002,VALID,19.933,VALID,53.0,VALID,0.0,
2019-10-14, 01:40:06,VALID,917.263,VALID,0.0,VALID,99.914,VALID,0.002,VALID,19.93,VALID,53.0,VALID,0.0,
2019-10-14, 01:41:06,VALID,917.253,VALID,0.0,VALID,99.916,VALID,0.003,VALID,19.922,VALID,53.0,VALID,0.0,
2019-10-14, 01:42:06,VALID,917.25,VALID,0.0,VALID,99.915,VALID,0.011,VALID,19.903,VALID,32.0,VALID,0.0,
2019-10-14, 01:43:06,VALID,917.238,VALID,0.0,VALID,99.913,VALID,0.001,VALID,19.881,VALID,31.0,VALID,0.0,
2019-10-14, 01:44:06,VALID,917.227,VALID,0.0,VALID,99.914,VALID,0.01,VALID,19.86,VALID,36.0,VALID,0.0,
2019-10-14, 01:45:06,VALID,917.216,VALID,0.0,VALID,99.914,VALID,0.011,VALID,19.838,VALID,20.0,VALID,0.0,
2019-10-14, 01:46:06,VALID,917.192,VALID,0.0,VALID,99.916,VALID,-0.004,VALID,19.849,VALID,20.0,VALID,0.0,
2019-10-14, 01:47:06,VALID,917.182,VALID,0.0,VALID,99.914,VALID,0.005,VALID,19.847,VALID,6.0,VALID,0.0,
2019-10-14, 01:48:06,VALID,917.13,VALID,0.0,VALID,99.913,VALID,0.009,VALID,19.844,VALID,352.0,VALID,0.0,
2019-10-14, 01:49:06,VALID,917.099,VALID,0.0,VALID,99.913,VALID,0.004,VALID,19.84,VALID,352.0,VALID,0.0,
2019-10-14, 01:50:06,VALID,917.078,VALID,0.0,VALID,99.913,VALID,0.011,VALID,19.84,VALID,351.0,VALID,0.0,
2019-10-14, 01:51:06,VALID,917.05,VALID,0.0,VALID,99.914,VALID,0.007,VALID,19.827,VALID,339.0,VALID,0.0,
2019-10-14, 01:52:06,VALID,917.036,VALID,0.0,VALID,99.913,VALID,0.008,VALID,19.843,VALID,325.0,VALID,0.0,
2019-10-14, 01:53:06,VALID,917.028,VALID,0.0,VALID,99.918,VALID,0.006,VALID,19.89,VALID,319.0,VALID,0.0,
2019-10-14, 01:54:06,VALID,917.008,VALID,0.0,VALID,99.913,VALID,0.018,VALID,19.928,VALID,315.0,VALID,0.0,
2019-10-14, 01:55:06,VALID,917.0,VALID,0.0,VALID,99.914,VALID,0.039,VALID,19.943,VALID,315.0,VALID,0.0,
2019-10-14, 01:56:06,VALID,916.994,VALID,0.0,VALID,99.911,VALID,0.033,VALID,19.959,VALID,315.0,VALID,0.0,
2019-10-14, 01:57:06,VALID,917.0,VALID,0.0,VALID,99.912,VALID,0.017,VALID,19.967,VALID,315.0,VALID,0.0,
2019-10-14, 01:58:06,VALID,916.985,VALID,0.0,VALID,99.913,VALID,0.022,VALID,19.949,VALID,315.0,VALID,0.0,
2019-10-14, 01:59:06,VALID,916.974,VALID,0.0,VALID,99.913,VALID,0.019,VALID,19.923,VALID,315.0,VALID,0.0,
2019-10-14, 02:00:06,VALID,916.962,VALID,0.0,VALID,99.914,VALID,0.033,VALID,19.864,VALID,15.0,VALID,0.0,
2019-10-14, 02:01:06,VALID,916.968,VALID,0.0,VALID,99.912,VALID,0.027,VALID,19.78,VALID,84.0,VALID,0.0,
2019-10-14, 02:02:06,VALID,916.987,VALID,0.0,VALID,99.911,VALID,0.039,VALID,19.723,VALID,89.0,VALID,0.0,
2019-10-14, 02:03:06,VALID,916.968,VALID,0.0,VALID,99.913,VALID,0.03,VALID,19.724,VALID,96.0,VALID,0.0,
2019-10-14, 02:04:06,VALID,916.966,VALID,0.0,VALID,99.914,VALID,0.017,VALID,19.724,VALID,98.0,VALID,0.0,
2019-10-14, 02:05:06,VALID,916.953,VALID,0.0,VALID,99.912,VALID,0.029,VALID,19.726,VALID,107.0,VALID,0.0,
2019-10-14, 02:06:06,VALID,916.932,VALID,0.0,VALID,99.913,VALID,-0.0,VALID,19.719,VALID,110.0,VALID,0.0,
2019-10-14, 02:07:06,VALID,916.915,VALID,0.0,VALID,99.911,VALID,-0.032,VALID,19.735,VALID,110.0,VALID,0.0,
2019-10-14, 02:08:06,VALID,916.874,VALID,0.0,VALID,99.912,VALID,-0.008,VALID,19.754,VALID,110.0,VALID,0.0,
2019-10-14, 02:09:06,VALID,916.864,VALID,0.0,VALID,99.912,VALID,-0.005,VALID,19.784,VALID,110.0,VALID,0.0,
2019-10-14, 02:10:06,VALID,916.844,VALID,0.0,VALID,99.911,VALID,-0.008,VALID,19.81,VALID,110.0,VALID,0.0,
2019-10-14, 02:11:06,VALID,916.821,VALID,0.0,VALID,99.913,VALID,0.004,VALID,19.825,VALID,110.0,VALID,0.0,
2019-10-14, 02:12:06,VALID,916.82,VALID,0.0,VALID,99.912,VALID,0.018,VALID,19.817,VALID,110.0,VALID,0.0,
2019-10-14, 02:13:06,VALID,916.778,VALID,0.0,VALID,99.915,VALID,0.019,VALID,19.82,VALID,110.0,VALID,0.0,
2019-10-14, 02:14:06,VALID,916.785,VALID,0.0,VALID,99.911,VALID,0.006,VALID,19.812,VALID,110.0,VALID,0.0,
2019-10-14, 02:15:06,VALID,916.77,VALID,0.0,VALID,99.915,VALID,0.004,VALID,19.786,VALID,96.0,VALID,0.0,
2019-10-14, 02:16:06,VALID,916.771,VALID,0.0,VALID,99.911,VALID,0.006,VALID,19.766,VALID,93.0,VALID,0.0,
2019-10-14, 02:17:06,VALID,916.78,VALID,0.0,VALID,99.911,VALID,-0.004,VALID,19.77,VALID,93.0,VALID,0.0,
2019-10-14, 02:18:06,VALID,916.774,VALID,0.0,VALID,99.911,VALID,-0.003,VALID,19.755,VALID,88.0,VALID,0.0,
2019-10-14, 02:19:06,VALID,916.765,VALID,0.0,VALID,99.911,VALID,-0.005,VALID,19.721,VALID,77.0,VALID,0.0,
2019-10-14, 02:20:06,VALID,916.769,VALID,0.0,VALID,99.909,VALID,-0.014,VALID,19.689,VALID,76.0,VALID,0.0,
2019-10-14, 02:21:06,VALID,916.734,VALID,0.0,VALID,99.911,VALID,0.02,VALID,19.704,VALID,76.0,VALID,0.0,
2019-10-14, 02:22:06,VALID,916.718,VALID,0.0,VALID,99.911,VALID,0.029,VALID,19.763,VALID,76.0,VALID,0.0,
2019-10-14, 02:23:06,VALID,916.708,VALID,0.0,VALID,99.912,VALID,0.04,VALID,19.75,VALID,76.0,VALID,0.0,
2019-10-14, 02:24:06,VALID,916.705,VALID,0.0,VALID,99.912,VALID,0.032,VALID,19.714,VALID,75.0,VALID,0.0,
2019-10-14, 02:25:06,VALID,916.69,VALID,0.0,VALID,99.914,VALID,0.046,VALID,19.694,VALID,75.0,VALID,0.0,
2019-10-14, 02:26:06,VALID,916.668,VALID,0.0,VALID,99.911,VALID,0.042,VALID,19.728,VALID,75.0,VALID,0.0,
2019-10-14, 02:27:06,VALID,916.641,VALID,0.0,VALID,99.913,VALID,0.033,VALID,19.759,VALID,75.0,VALID,0.0,
2019-10-14, 02:28:06,VALID,916.645,VALID,0.0,VALID,99.912,VALID,0.018,VALID,19.769,VALID,75.0,VALID,0.0,
2019-10-14, 02:29:06,VALID,916.637,VALID,0.0,VALID,99.913,VALID,0.036,VALID,19.754,VALID,75.0,VALID,0.0,
2019-10-14, 02:30:06,VALID,916.628,VALID,0.0,VALID,99.91,VALID,0.017,VALID,19.742,VALID,75.0,VALID,0.0,
2019-10-14, 02:31:06,VALID,916.605,VALID,0.0,VALID,99.911,VALID,0.025,VALID,19.739,VALID,75.0,VALID,0.0,
2019-10-14, 02:32:06,VALID,916.596,VALID,0.0,VALID,99.91,VALID,0.021,VALID,19.731,VALID,76.0,VALID,0.0,
2019-10-14, 02:33:06,VALID,916.591,VALID,0.0,VALID,99.913,VALID,0.02,VALID,19.721,VALID,81.0,VALID,0.0,
2019-10-14, 02:34:06,VALID,916.564,VALID,0.0,VALID,99.913,VALID,0.024,VALID,19.711,VALID,101.0,VALID,0.0,
2019-10-14, 02:35:06,VALID,916.583,VALID,0.0,VALID,99.912,VALID,0.035,VALID,19.701,VALID,100.0,VALID,0.0,
2019-10-14, 02:36:06,VALID,916.562,VALID,0.0,VALID,99.912,VALID,0.007,VALID,19.686,VALID,101.0,VALID,0.0,
2019-10-14, 02:37:06,VALID,916.571,VALID,0.0,VALID,99.91,VALID,0.009,VALID,19.672,VALID,97.0,VALID,0.0,
2019-10-14, 02:38:06,VALID,916.55,VALID,0.0,VALID,99.913,VALID,0.013,VALID,19.673,VALID,97.0,VALID,0.0,
2019-10-14, 02:39:06,VALID,916.552,VALID,0.0,VALID,99.911,VALID,-0.012,VALID,19.675,VALID,97.0,VALID,0.0,
2019-10-14, 02:40:06,VALID,916.549,VALID,0.0,VALID,99.911,VALID,0.002,VALID,19.664,VALID,98.0,VALID,0.0,
2019-10-14, 02:41:06,VALID,916.551,VALID,0.0,VALID,99.913,VALID,0.007,VALID,19.668,VALID,105.0,VALID,0.0,
2019-10-14, 02:42:06,VALID,916.538,VALID,0.0,VALID,99.912,VALID,0.014,VALID,19.68,VALID,108.0,VALID,0.0,
2019-10-14, 02:43:06,VALID,916.54,VALID,0.0,VALID,99.909,VALID,-0.002,VALID,19.692,VALID,125.0,VALID,0.0,
2019-10-14, 02:44:06,VALID,916.524,VALID,0.0,VALID,99.909,VALID,0.01,VALID,19.718,VALID,123.0,VALID,0.0,
2019-10-14, 02:45:06,VALID,916.512,VALID,0.0,VALID,99.913,VALID,0.015,VALID,19.75,VALID,122.0,VALID,0.692,
2019-10-14, 02:46:06,VALID,916.511,VALID,0.0,VALID,99.91,VALID,0.01,VALID,19.757,VALID,129.0,VALID,0.34,
2019-10-14, 02:47:06,VALID,916.487,VALID,0.0,VALID,99.91,VALID,0.003,VALID,19.765,VALID,117.0,VALID,0.104,
2019-10-14, 02:48:06,VALID,916.488,VALID,0.0,VALID,99.912,VALID,-0.004,VALID,19.765,VALID,117.0,VALID,0.0,
2019-10-14, 02:49:06,VALID,916.495,VALID,0.0,VALID,99.913,VALID,0.015,VALID,19.758,VALID,111.0,VALID,0.0,
2019-10-14, 02:50:06,VALID,916.498,VALID,0.0,VALID,99.911,VALID,-0.005,VALID,19.732,VALID,100.0,VALID,0.003,
2019-10-14, 02:51:06,VALID,916.493,VALID,0.0,VALID,99.914,VALID,0.004,VALID,19.708,VALID,101.0,VALID,0.389,
2019-10-14, 02:52:06,VALID,916.491,VALID,0.0,VALID,99.912,VALID,-0.002,VALID,19.712,VALID,106.0,VALID,0.333,
2019-10-14, 02:53:06,VALID,916.497,VALID,0.0,VALID,99.91,VALID,-0.016,VALID,19.712,VALID,78.0,VALID,0.397,
2019-10-14, 02:54:06,VALID,916.531,VALID,0.0,VALID,99.912,VALID,-0.0,VALID,19.672,VALID,68.0,VALID,0.644,
2019-10-14, 02:55:06,VALID,916.526,VALID,0.0,VALID,99.91,VALID,-0.008,VALID,19.636,VALID,69.0,VALID,0.912,
2019-10-14, 02:56:06,VALID,916.556,VALID,0.0,VALID,99.911,VALID,0.002,VALID,19.641,VALID,69.0,VALID,0.944,
2019-10-14, 02:57:06,VALID,916.566,VALID,0.0,VALID,99.909,VALID,-0.001,VALID,19.676,VALID,66.0,VALID,0.818,
2019-10-14, 02:58:06,VALID,916.569,VALID,0.0,VALID,99.909,VALID,-0.004,VALID,19.681,VALID,69.0,VALID,0.621,
2019-10-14, 02:59:06,VALID,916.571,VALID,0.0,VALID,99.912,VALID,-0.02,VALID,19.7,VALID,81.0,VALID,0.687,
2019-10-14, 03:00:06,VALID,916.563,VALID,0.0,VALID,99.911,VALID,-0.016,VALID,19.678,VALID,83.0,VALID,0.62,
2019-10-14, 03:01:06,VALID,916.569,VALID,0.0,VALID,99.91,VALID,-0.02,VALID,19.668,VALID,76.0,VALID,0.703,
2019-10-14, 03:02:06,VALID,916.564,VALID,0.0,VALID,99.91,VALID,0.003,VALID,19.672,VALID,82.0,VALID,0.654,
2019-10-14, 03:03:06,VALID,916.544,VALID,0.0,VALID,99.91,VALID,-0.003,VALID,19.679,VALID,74.0,VALID,0.486,
2019-10-14, 03:04:06,VALID,916.563,VALID,0.0,VALID,99.913,VALID,0.003,VALID,19.664,VALID,70.0,VALID,0.598,
2019-10-14, 03:05:06,VALID,916.559,VALID,0.0,VALID,99.91,VALID,0.002,VALID,19.652,VALID,69.0,VALID,0.854,
2019-10-14, 03:06:06,VALID,916.549,VALID,0.0,VALID,99.913,VALID,0.015,VALID,19.653,VALID,85.0,VALID,0.453,
2019-10-14, 03:07:06,VALID,916.522,VALID,0.0,VALID,99.909,VALID,0.012,VALID,19.648,VALID,63.0,VALID,0.041,
2019-10-14, 03:08:06,VALID,916.506,VALID,0.0,VALID,99.91,VALID,0.002,VALID,19.64,VALID,66.0,VALID,0.0,
2019-10-14, 03:09:06,VALID,916.511,VALID,0.0,VALID,99.911,VALID,0.01,VALID,19.633,VALID,70.0,VALID,0.003,
2019-10-14, 03:10:06,VALID,916.482,VALID,0.0,VALID,99.91,VALID,0.014,VALID,19.629,VALID,75.0,VALID,0.0,
2019-10-14, 03:11:06,VALID,916.472,VALID,0.0,VALID,99.908,VALID,-0.005,VALID,19.624,VALID,75.0,VALID,0.131,
2019-10-14, 03:12:06,VALID,916.462,VALID,0.0,VALID,99.911,VALID,0.012,VALID,19.629,VALID,75.0,VALID,0.178,
2019-10-14, 03:13:06,VALID,916.49,VALID,0.0,VALID,99.908,VALID,0.004,VALID,19.623,VALID,75.0,VALID,0.206,
2019-10-14, 03:14:06,VALID,916.489,VALID,0.0,VALID,99.912,VALID,0.011,VALID,19.592,VALID,75.0,VALID,0.307,
2019-10-14, 03:15:06,VALID,916.478,VALID,0.0,VALID,99.912,VALID,-0.001,VALID,19.588,VALID,75.0,VALID,0.28,
2019-10-14, 03:16:06,VALID,916.487,VALID,0.0,VALID,99.913,VALID,0.018,VALID,19.601,VALID,75.0,VALID,0.147,
2019-10-14, 03:17:06,VALID,916.488,VALID,0.0,VALID,99.91,VALID,0.01,VALID,19.607,VALID,75.0,VALID,0.0,
2019-10-14, 03:18:06,VALID,916.482,VALID,0.0,VALID,99.911,VALID,0.01,VALID,19.587,VALID,72.0,VALID,0.0,
2019-10-14, 03:19:06,VALID,916.461,VALID,0.0,VALID,99.912,VALID,-0.004,VALID,19.572,VALID,62.0,VALID,0.0,
2019-10-14, 03:20:06,VALID,916.459,VALID,0.0,VALID,99.913,VALID,0.012,VALID,19.608,VALID,62.0,VALID,0.0,
2019-10-14, 03:21:06,VALID,916.427,VALID,0.0,VALID,99.91,VALID,0.001,VALID,19.618,VALID,62.0,VALID,0.0,
2019-10-14, 03:22:06,VALID,916.418,VALID,0.0,VALID,99.908,VALID,0.022,VALID,19.622,VALID,62.0,VALID,0.0,
2019-10-14, 03:23:06,VALID,916.398,VALID,0.0,VALID,99.909,VALID,0.026,VALID,19.6,VALID,62.0,VALID,0.0,
2019-10-14, 03:24:06,VALID,916.387,VALID,0.0,VALID,99.913,VALID,0.022,VALID,19.596,VALID,59.0,VALID,0.0,
2019-10-14, 03:25:06,VALID,916.389,VALID,0.0,VALID,99.914,VALID,0.02,VALID,19.579,VALID,53.0,VALID,0.0,
2019-10-14, 03:26:06,VALID,916.372,VALID,0.0,VALID,99.91,VALID,0.029,VALID,19.553,VALID,59.0,VALID,0.0,
2019-10-14, 03:27:06,VALID,916.362,VALID,0.0,VALID,99.913,VALID,0.011,VALID,19.541,VALID,88.0,VALID,0.0,
2019-10-14, 03:28:06,VALID,916.358,VALID,0.0,VALID,99.909,VALID,0.015,VALID,19.538,VALID,99.0,VALID,0.0,
2019-10-14, 03:29:06,VALID,916.322,VALID,0.0,VALID,99.91,VALID,0.019,VALID,19.53,VALID,100.0,VALID,0.0,
2019-10-14, 03:30:06,VALID,916.317,VALID,0.0,VALID,99.912,VALID,0.019,VALID,19.533,VALID,105.0,VALID,0.173,
2019-10-14, 03:31:06,VALID,916.315,VALID,0.0,VALID,99.911,VALID,0.033,VALID,19.533,VALID,108.0,VALID,0.775,
2019-10-14, 03:32:06,VALID,916.312,VALID,0.0,VALID,99.91,VALID,0.026,VALID,19.53,VALID,106.0,VALID,0.852,
2019-10-14, 03:33:06,VALID,916.274,VALID,0.0,VALID,99.91,VALID,0.01,VALID,19.55,VALID,112.0,VALID,0.784,
2019-10-14, 03:34:06,VALID,916.282,VALID,0.0,VALID,99.908,VALID,0.012,VALID,19.548,VALID,102.0,VALID,0.636,
2019-10-14, 03:35:06,VALID,916.273,VALID,0.0,VALID,99.91,VALID,0.03,VALID,19.53,VALID,95.0,VALID,0.69,
2019-10-14, 03:36:06,VALID,916.269,VALID,0.0,VALID,99.912,VALID,0.008,VALID,19.507,VALID,93.0,VALID,0.445,
2019-10-14, 03:37:06,VALID,916.267,VALID,0.0,VALID,99.909,VALID,-0.005,VALID,19.499,VALID,84.0,VALID,0.145,
2019-10-14, 03:38:06,VALID,916.251,VALID,0.0,VALID,99.911,VALID,0.0,VALID,19.512,VALID,82.0,VALID,0.0,
2019-10-14, 03:39:06,VALID,916.246,VALID,0.0,VALID,99.907,VALID,-0.011,VALID,19.518,VALID,81.0,VALID,0.0,
2019-10-14, 03:40:06,VALID,916.243,VALID,0.0,VALID,99.912,VALID,0.01,VALID,19.502,VALID,81.0,VALID,0.0,
2019-10-14, 03:41:06,VALID,916.226,VALID,0.0,VALID,99.911,VALID,-0.0,VALID,19.488,VALID,81.0,VALID,0.0,